Content
SEND FEEDBACK

Daily
Averages
Monthly
Summary
United States of America

ANN ARBOR, MICHIGAN


Home > North America > United States > Michigan
Elevation: 759 feet     Latitude: 42 17N     Longitude: 083 43W

WEATHER
 
SELECT A DAY
Number of Records: 203,168;   Date Range: 1/1/95 - 7/22/14
 
SHARE

PRINT THIS DATA

[ ← Previous Day ]
WEATHER ALMANAC - JANUARY 3, 2013
[ Next Day → ]
[ °C ]   °F
Weather ElementAverageHighLow
Temperature21.7 °F30 °F (8:53 pm)10.9 °F (3:53 am)
Dewpoint14.7 °F24.1 °F (6:53 pm)3.9 °F (3:53 am)
Humidity74.4 %82 % (6:53 pm)67 % (2:53 am)
Barometer30.14 in30.19 in (8:53 pm)30.09 in (10:12 am)
Wind Speed8.5 mph15 mph (4:53 pm)
Wind Gust20.7 mph (1:53 pm)
Weather ElementAverage
Visibility7.9 mi
Wind DirectionWSW (233 °)

Weather ElementTotal
Precipitation---
Heating Degree Days44.6 (Base 65)
Averaged from 27 records on January 3, 2013
WEATHER CONDITIONS BREAKOUT
WIND DIRECTION BREAKOUT
WEATHER BY HOUR - JANUARY 3, 2013
[ °C ]   °F
Local TimeTemperatureDewpointHumidityBarometerVisibilityWind DirectionWind SpeedGust SpeedPrecipitationEventsConditions
1:24 AM17.6 °F10.4 °F73 %30.14 in10.0 miSW (230°)6.9 mphScattered Clouds
1:53 AM17.1 °F8.1 °F68 %30.17 in10.0 miSW (220°)4.6 mphClear
2:53 AM14.0 °F5.0 °F67 %30.18 in10.0 miSouth (190°)4.6 mphClear
3:53 AM10.9 °F3.9 °F73 %30.16 in10.0 miSSW (210°)3.5 mphScattered Clouds
4:53 AM10.9 °F5.0 °F77 %30.15 in10.0 miSSW (210°)4.6 mphOvercast
5:53 AM12.9 °F5.0 °F71 %30.14 in10.0 miSW (230°)4.6 mphOvercast
6:53 AM12.9 °F6.1 °F74 %30.13 in9.0 miSouth (190°)3.5 mphOvercast
7:53 AM12.9 °F6.1 °F74 %30.13 in8.0 miCalmOvercast
8:53 AM15.1 °F6.1 °F68 %30.13 in9.0 miWSW (240°)6.9 mphOvercast
9:53 AM17.1 °F8.1 °F68 %30.13 in9.0 miSW (230°)8.1 mphOvercast
10:12 AM17.6 °F8.6 °F68 %30.09 in9.0 miWSW (240°)8.1 mphOvercast
10:53 AM19.0 °F10.9 °F71 %30.13 in9.0 miWSW (240°)9.2 mphOvercast
11:00 AM19.4 °F10.4 °F68 %30.09 in9.0 miWSW (240°)8.1 mphOvercast
11:53 AM23.0 °F14.0 °F68 %30.12 in8.0 miSW (230°)8.1 mphOvercast
12:53 PM25.0 °F18.0 °F75 %30.09 in7.0 miSW (230°)9.2 mphOvercast
1:53 PM26.1 °F21.0 °F81 %30.09 in5.0 miWSW (250°)13.8 mph20.7 mphHaze
2:53 PM27.0 °F21.9 °F81 %30.10 in4.0 miWest (260°)12.7 mphHaze
3:53 PM28.0 °F23.0 °F81 %30.12 in4.0 miWest (260°)11.5 mphHaze
4:53 PM28.0 °F23.0 °F81 %30.14 in4.0 miWSW (250°)15.0 mphHaze
5:53 PM28.9 °F23.0 °F78 %30.15 in6.0 miWest (260°)13.8 mphHaze
6:53 PM28.9 °F24.1 °F82 %30.17 in6.0 miWest (260°)12.7 mphHaze
7:53 PM28.9 °F24.1 °F82 %30.18 in6.0 miWest (260°)9.2 mphHaze
8:53 PM30.0 °F23.0 °F75 %30.19 in8.0 miWNW (290°)12.7 mph19.6 mphOvercast
9:53 PM28.9 °F21.9 °F75 %30.19 in9.0 miWest (280°)10.4 mphOvercast
10:00 PM28.4 °F21.2 °F74 %30.15 in9.0 miWest (280°)10.4 mphOvercast
10:53 PM28.9 °F23.0 °F78 %30.18 in8.0 miWest (260°)6.9 mphOvercast
11:53 PM28.9 °F23.0 °F78 %30.17 in8.0 miWSW (250°)11.5 mphOvercast
Hourly data recorded from KARB, located miles away from Ann Arbor, Michigan







STORIES FROM OUR PARTNERS